"Pseudo-MPEC" for CCPT6P2

Created 2025 Jan 12 9:31:05 UT using Find_Orb

Click here for an explanation of pseudo-MPECs

 
 Astrometry: 
     CCPT6P2*1C2025 01 07.38985808 31 34.122+25 01 49.08   ~17A2 21.06GVNEOCPG96
     CCPT6P2 1C2025 01 07.39058308 31 35.252+25 01 47.68   ~17A2 21.61GVNEOCPG96
     CCPT6P2 1C2025 01 07.39208108 31 37.517+25 01 45.01   ~17A2 21.71GVNEOCPG96

Station data:
(G96) Mt. Lemmon Survey  (N32.442729 W110.788720)  US/Arizona.  Observer E.
   J. Christensen.  + 10K CCD.

Orbital elements:  CCPT6P2
   Perihelion 2025 Feb 27.38030 +/- 31.6 TT =  9:07:37 (JD 2460733.88030)
Epoch 2025 Jan  7.0 TT = JDT 2460682.5   Earth MOID: 0.0013   Ve: 0.0279
M 335.04286412 +/- 21               Ma: 0.0104                   AutoNEOCP
n   0.48573356 +/- 0.347            Peri.  263.09968 +/- 70
a   1.60276791 +/- 0.763            Node   292.32820 +/- 80
e   0.5985126 +/- 0.243             Incl.    1.73567 +/- 1.9
P   2.029/741.133d         H 28.76  G  0.15   U 12.0  SR
q 0.64349108 +/- 0.23    Q 2.56204473 +/- 32.2            (J2000 ecliptic)
From 3 observations 2025 Jan. 7 (3.2 min); mean residual 0".11
Residuals in arcseconds: 
250107 G96  .14-  .03+    250107 G96  .20+  .05-    250107 G96  .07-  .02+    

Ephemerides (geocentric):
Date (UTC) HH   RA             Dec           delta  r     elong  mag " sig PA
---- --------  ------------   ------------  ------ ------ -----  --- --------
2025 01 12 10  18 19 06.823   -23 35 16.64  .02793 .95692  17.7 32??  65d  72
2025 01 12 11  18 20 03.053   -23 37 27.29  .02835 .95650  17.6 32??  65d  72
2025 01 12 12  18 20 57.692   -23 39 32.93  .02876 .95608  17.4 32??  65d  72
2025 01 12 13  18 21 50.805   -23 41 33.83  .02918 .95566  17.2 32??  65d  72
2025 01 12 14  18 22 42.454   -23 43 30.24  .02960 .95524  17.1 32??  65d  72
2025 01 12 15  18 23 32.698   -23 45 22.38  .03002 .95482  16.9 33??  65d  72
2025 01 12 16  18 24 21.591   -23 47 10.45  .03043 .95440  16.8 33??  65d  72
2025 01 12 17  18 25 09.187   -23 48 54.67  .03085 .95398  16.7 33??  65d  72
2025 01 12 18  18 25 55.536   -23 50 35.21  .03127 .95356  16.5 33??  65d  72
2025 01 12 19  18 26 40.685   -23 52 12.25  .03169 .95314  16.4 33??  65d  72
2025 01 12 20  18 27 24.680   -23 53 45.96  .03211 .95272  16.3 33??  65d  72
2025 01 12 21  18 28 07.564   -23 55 16.50  .03253 .95230  16.2 33??  64d  72
2025 01 12 22  18 28 49.377   -23 56 44.01  .03295 .95189  16.0 33??  64d  72
2025 01 12 23  18 29 30.160   -23 58 08.62  .03337 .95147  15.9 33??  64d  72
2025 01 13 00  18 30 09.948   -23 59 30.47  .03379 .95105  15.8 33??  64d  72
2025 01 13 01  18 30 48.778   -24 00 49.68  .03421 .95063  15.7 33??  64d  72
2025 01 13 02  18 31 26.683   -24 02 06.37  .03463 .95021  15.6 33??  64d  72
2025 01 13 03  18 32 03.696   -24 03 20.64  .03506 .94979  15.5 33??  64d  72
2025 01 13 04  18 32 39.847   -24 04 32.60  .03548 .94937  15.4 34??  64d  72
2025 01 13 05  18 33 15.167   -24 05 42.35  .03590 .94895  15.4 34??  64d  72
2025 01 13 06  18 33 49.682   -24 06 49.98  .03632 .94853  15.3 34??  64d  72
2025 01 13 07  18 34 23.421   -24 07 55.58  .03674 .94811  15.2 34??  64d  72
2025 01 13 08  18 34 56.408   -24 08 59.22  .03717 .94770  15.1 34??  64d  72
2025 01 13 09  18 35 28.668   -24 10 01.00  .03759 .94728  15.0 34??  64d  72
2025 01 13 10  18 36 00.226   -24 11 00.98  .03801 .94686  14.9 34??  64d  72
2025 01 13 11  18 36 31.103   -24 11 59.24  .03844 .94644  14.9 34??  64d  72
2025 01 13 12  18 37 01.322   -24 12 55.85  .03886 .94602  14.8 34??  64d  72
2025 01 13 13  18 37 30.903   -24 13 50.85  .03928 .94560  14.7 34??  64d  72
2025 01 13 14  18 37 59.866   -24 14 44.33  .03971 .94518  14.7 34??  64d  72
2025 01 13 15  18 38 28.229   -24 15 36.34  .04013 .94477  14.6 34??  64d  72
2025 01 13 16  18 38 56.013   -24 16 26.92  .04055 .94435  14.6 34??  64d  72
2025 01 13 17  18 39 23.233   -24 17 16.15  .04098 .94393  14.5 34??  64d  72
2025 01 13 18  18 39 49.907   -24 18 04.05  .04140 .94351  14.4 34??  64d  72
2025 01 13 19  18 40 16.052   -24 18 50.69  .04183 .94309  14.4 34??  64d  72
2025 01 13 20  18 40 41.682   -24 19 36.11  .04225 .94267  14.3 34??  64d  72
2025 01 13 21  18 41 06.814   -24 20 20.35  .04268 .94226  14.3 35??  64d  72
2025 01 13 22  18 41 31.460   -24 21 03.45  .04310 .94184  14.2 35??  63d  72
2025 01 13 23  18 41 55.636   -24 21 45.46  .04353 .94142  14.2 35??  63d  72
2025 01 14 00  18 42 19.355   -24 22 26.40  .04395 .94100  14.1 35??  63d  72
2025 01 14 01  18 42 42.629   -24 23 06.32  .04438 .94058  14.1 35??  63d  72
2025 01 14 02  18 43 05.471   -24 23 45.26  .04481 .94017  14.1 35??  63d  72
2025 01 14 03  18 43 27.894   -24 24 23.24  .04523 .93975  14.0 35??  63d  72
2025 01 14 04  18 43 49.907   -24 25 00.29  .04566 .93933  14.0 35??  63d  72
2025 01 14 05  18 44 11.524   -24 25 36.46  .04609 .93891  13.9 35??  63d  72
2025 01 14 06  18 44 32.753   -24 26 11.75  .04651 .93850  13.9 35??  63d  72
2025 01 14 07  18 44 53.607   -24 26 46.22  .04694 .93808  13.9 35??  63d  72
2025 01 14 08  18 45 14.094   -24 27 19.87  .04737 .93766  13.8 35??  63d  72
2025 01 14 09  18 45 34.225   -24 27 52.74  .04779 .93724  13.8 35??  63d  72